Date,TemperatureHighF,TemperatureAvgF,TemperatureLowF,DewpointHighF,DewpointAvgF,DewpointLowF,HumidityHigh,HumidityAvg,HumidityLow,PressureMaxIn,PressureMinIn,WindSpeedMaxMPH,WindSpeedAvgMPH,GustSpeedMaxMPH,PrecipitationSumIn
2013-1-5,34,33,33,25,24,23,70,68,66,30.19,30.18,0,0,2,0.00
2013-1-15,37,36,35,33,32,32,89,87,85,30.14,30.08,3,2,5,0.46
2013-1-16,35,35,34,32,32,32,90,89,89,30.09,29.96,3,2,4,0.51
2013-1-19,38,38,38,29,29,28,69,69,69,30.26,30.26,6,6,11,0.00
2013-1-25,22,20,19,16,11,5,88,69,46,30.14,30.07,2,1,7,0.00
2013-1-27,29,26,24,18,17,17,73,69,62,30.45,30.41,0,0,4,0.00
2013-1-31,66,61,50,60,53,38,82,76,64,29.20,29.18,24,18,39,0.00
2013-2-2,18,18,18,8,8,8,65,65,65,30.27,30.27,1,1,3,0.00
2013-2-8,38,38,38,36,36,35,90,90,90,29.72,29.72,9,8,9,0.00
2013-3-5,36,36,36,30,30,30,81,81,81,29.81,29.80,5,5,5,0.00
2013-3-6,40,39,36,36,35,30,87,86,80,29.80,29.55,17,14,32,0.58
2013-6-7,71,70,69,68,67,66,90,90,90,29.72,29.58,7,4,11,2.01
2013-6-10,75,75,75,70,70,70,85,85,85,29.75,29.75,10,10,13,0.00
2013-6-14,58,58,58,55,55,55,90,90,90,29.68,29.67,2,2,4,0.12
2013-6-17,70,70,70,66,66,66,85,85,85,29.87,29.87,0,0,0,0.00
2013-6-30,78,70,71,74,62,-100,90,84,86,29.76,-32.77,7,-49,11,0.76
2013-7-8,72,72,72,66,66,66,81,81,81,29.97,29.97,3,3,6,0.00
2013-7-12,73,71,70,69,67,66,90,87,82,29.92,29.89,4,3,9,2.70
2013-7-19,96,92,82,81,79,77,86,66,57,29.92,29.78,7,4,11,0.00
2013-7-22,76,76,76,73,73,73,90,90,90,29.71,29.70,1,1,3,0.75
2013-7-27,77,76,76,70,70,70,81,80,80,29.97,29.97,3,3,6,0.00
2013-8-2,70,69,69,66,66,66,89,89,89,29.79,29.78,0,0,9,0.00
2013-8-9,76,76,76,72,72,72,88,88,88,29.91,29.91,1,1,2,0.00
2013-8-17,78,78,76,61,60,58,59,54,50,30.16,30.15,4,2,6,0.00
2013-8-25,72,72,72,64,64,64,75,75,75,30.34,30.34,1,1,1,0.00
2013-9-12,84,81,80,74,73,73,80,77,73,29.84,29.83,4,3,7,0.00
2013-10-9,58,57,57,52,51,50,82,79,76,30.18,30.14,8,6,13,0.04
2013-10-10,61,57,54,58,54,51,90,90,88,30.09,29.88,10,8,18,1.24
2013-10-11,61,60,60,58,58,57,90,90,90,29.88,29.85,9,8,16,0.44
2013-10-12,63,63,63,59,59,59,86,86,86,30.08,30.08,11,11,16,0.00
2013-10-27,54,54,54,38,38,38,54,54,54,29.97,29.97,3,3,4,0.00
2013-11-10,48,48,48,30,30,30,51,51,51,30.07,30.07,3,3,4,0.00
2013-11-13,40,37,34,19,17,16,54,45,40,30.36,30.32,8,4,17,0.00
2013-11-23,44,44,43,27,26,26,52,51,49,29.94,29.93,3,2,7,0.00
2013-12-6,42,42,42,39,39,39,90,90,90,30.01,30.00,6,4,10,0.40
2013-12-10,32,32,32,29,29,29,90,90,90,29.90,29.88,1,0,9,0.03
2013-12-14,34,34,34,32,32,31,90,90,90,29.82,29.67,13,9,19,0.54
2013-12-26,32,32,32,25,24,24,73,72,72,30.20,30.20,1,1,3,0.00